Flag for Brazil Weather past 2 weeks in Sorocaba, São Paulo, Brazil

Now
66 °F

Clear.


Feels Like: 66 °F
Forecast: 66 / 84 °F
Wind: 13 mph from Southeast

Location: Campinas Aeroporto

Current Time: Apr 2, 2015 at 4:05:58 AM

Latest Report: Apr 2, 2015 at 3:00 AM


Visibility: 10 mi

Pressure: 30.07 "Hg

Humidity: 88%

Dew point: 63 °F

Location of SorocabaLocation

Historic Weather in Sorocaba — Graph

°F

Sorocaba temperature yesterday

Maximum temperature yesterday: 84 °F (at 1:00 PM)
Minimum temperature yesterday: 68 °F (at 2:00 AM)
Average temperature yesterday: 75 °F

Past Weeks' High & Low Weather Summary

 TemperatureHumidityPressure
High88 °F (Mar 27, 4:00 PM)100% (Mar 18, 7:00 PM)30.18 "Hg (Mar 18, 7:00 PM)
Low63 °F (Mar 24, 4:00 AM)35% (Mar 27, 4:00 PM)29.89 "Hg (Mar 21, 4:00 PM)
Average73 °F77%30.05 "Hg
* Reported Mar 18 3:00 AM — Apr 2 3:00 AM, Sorocaba, Weather by CustomWeather, © 2015

Note: Actual official high and low records may vary slightly from our data, if they occured in-between our weather recording intervals... More about our weather records

Advertising

Sorocaba weather history for previous 24 hours

 ConditionsComfort  
Time TempWeatherWind HumidityBarometerVisibility
3:00 AM
Thu, Apr 2
66 °FClear.13 mph88%30.07 "Hg10 mi
2:00 AM66 °FClear.12 mph88%30.07 "Hg10 mi
1:00 AM68 °FClear.13 mph83%30.07 "Hg10 mi
12:00 AM70 °FClear.13 mph78%30.09 "Hg6 mi
11:00 PM
Wed, Apr 1
70 °FClear.13 mph83%30.09 "Hg10 mi
10:00 PM72 °FClear.13 mph78%30.09 "Hg10 mi
9:00 PM72 °FClear.15 mph78%30.07 "Hg10 mi
8:00 PM73 °FPassing clouds.14 mph74%30.04 "HgN/A
7:00 PM79 °FPassing clouds.7 mph51%30.04 "HgN/A
6:00 PM81 °FPassing clouds.7 mph45%30.01 "HgN/A
5:00 PM84 °FPassing clouds.9 mph35%30.01 "HgN/A
4:00 PM84 °FPassing clouds.8 mph40%30.01 "HgN/A
3:00 PM84 °FPassing clouds.5 mph37%30.01 "HgN/A
2:00 PM84 °FPassing clouds.6 mph40%30.01 "HgN/A
1:00 PM84 °FPassing clouds.3 mph43%30.07 "HgN/A
12:00 PM82 °FPassing clouds.3 mph51%30.07 "HgN/A
11:00 AM81 °FPassing clouds.3 mph58%30.09 "HgN/A
10:00 AM77 °FPassing clouds.6 mph69%30.09 "HgN/A
9:00 AM73 °FClear.9 mph74%30.09 "Hg4 mi
8:00 AM70 °FFog.12 mph83%30.07 "Hg3 mi
7:00 AM68 °FClear.10 mph88%30.04 "Hg4 mi
6:00 AM68 °FClear.10 mph88%30.01 "Hg4 mi
5:00 AM68 °FFog.10 mph88%30.01 "Hg3 mi
4:00 AM68 °FFog.10 mph88%29.98 "Hg3 mi
Weather by CustomWeather, © 2015

See weather overviewHow to use our weather pages